contact:dominique.lefevre@mio.osupytheas.fr, maurice.libes@osupytheas.fr, didier.mallarino@osupytheas.fr
Project:EMSO http://www.emso-fr.org/EMSO-France
Depth: 2436.0 m
Title:EMSO Ligure Ouest : Data MII capteur CSTAR
DateTime,Latitude,Longitude,Instrument_Serial,Reference_Counts,Signal_Counts,Corrected_Signal_raw_counts,Calculated_Beam_c_inverse_meters,Internal_thermistor_counts
DateTime,Latitude,Longitude,Instrument_Serial,Reference_Counts,Signal_Counts,Corrected_Signal_raw_counts,Calculated_Beam_c_inverse_meters,Internal_thermistor_counts
2021-10-19T00:01:12,42.805,6.029,CST-1368DR,5141,6877,14315,0.348,551
2021-10-19T00:04:14,42.805,6.029,CST-1368DR,5141,6877,14316,0.348,551
2021-10-19T00:07:15,42.805,6.029,CST-1368DR,5141,6877,14315,0.348,551
2021-10-19T00:10:17,42.805,6.029,CST-1368DR,5141,6876,14314,0.348,551
2021-10-19T00:13:19,42.805,6.029,CST-1368DR,5141,6876,14314,0.348,551
2021-10-19T00:16:20,42.805,6.029,CST-1368DR,5141,6877,14315,0.348,551
2021-10-19T00:19:22,42.805,6.029,CST-1368DR,5141,6876,14314,0.348,551
2021-10-19T00:22:23,42.805,6.029,CST-1368DR,5141,6876,14314,0.348,551
2021-10-19T00:25:25,42.805,6.029,CST-1368DR,5141,6877,14315,0.348,551
2021-10-19T00:28:26,42.805,6.029,CST-1368DR,5141,6877,14316,0.348,551
2021-10-19T00:31:28,42.805,6.029,CST-1368DR,5141,6876,14314,0.348,551
2021-10-19T00:34:30,42.805,6.029,CST-1368DR,5140,6875,14313,0.349,551
2021-10-19T00:37:31,42.805,6.029,CST-1368DR,5141,6876,14314,0.348,551
2021-10-19T00:40:33,42.805,6.029,CST-1368DR,5141,6875,14312,0.349,551
2021-10-19T00:43:34,42.805,6.029,CST-1368DR,5141,6877,14316,0.348,551
2021-10-19T00:46:36,42.805,6.029,CST-1368DR,5141,6875,14311,0.349,551
2021-10-19T00:49:38,42.805,6.029,CST-1368DR,5140,6875,14314,0.348,551
2021-10-19T00:52:39,42.805,6.029,CST-1368DR,5141,6876,14314,0.348,551
2021-10-19T00:55:41,42.805,6.029,CST-1368DR,5141,6876,14313,0.349,551
2021-10-19T00:58:42,42.805,6.029,CST-1368DR,5141,6876,14314,0.348,551
2021-10-19T01:01:44,42.805,6.029,CST-1368DR,5140,6875,14315,0.348,551
2021-10-19T01:04:45,42.805,6.029,CST-1368DR,5141,6877,14315,0.348,551
2021-10-19T01:07:47,42.805,6.029,CST-1368DR,5140,6876,14316,0.348,551
2021-10-19T01:10:49,42.805,6.029,CST-1368DR,5140,6867,14298,0.353,551
2021-10-19T01:13:50,42.805,6.029,CST-1368DR,5141,6877,14315,0.348,551
2021-10-19T01:16:52,42.805,6.029,CST-1368DR,5141,6876,14314,0.348,551
2021-10-19T01:19:53,42.805,6.029,CST-1368DR,5141,6877,14315,0.348,551
2021-10-19T01:22:55,42.805,6.029,CST-1368DR,5141,6876,14314,0.348,551
2021-10-19T01:25:56,42.805,6.029,CST-1368DR,5141,6876,14314,0.348,551
2021-10-19T01:28:58,42.805,6.029,CST-1368DR,5141,6876,14314,0.348,551
2021-10-19T01:32:00,42.805,6.029,CST-1368DR,5141,6876,14313,0.349,551
2021-10-19T01:35:01,42.805,6.029,CST-1368DR,5140,6876,14317,0.347,551
2021-10-19T01:38:03,42.805,6.029,CST-1368DR,5141,6876,14313,0.349,551
2021-10-19T01:41:04,42.805,6.029,CST-1368DR,5140,6877,14317,0.347,551
2021-10-19T01:44:06,42.805,6.029,CST-1368DR,5140,6876,14316,0.348,551
2021-10-19T01:47:08,42.805,6.029,CST-1368DR,5140,6877,14318,0.347,551
2021-10-19T01:50:09,42.805,6.029,CST-1368DR,5140,6877,14319,0.347,551
2021-10-19T01:53:11,42.805,6.029,CST-1368DR,5140,6872,14309,0.350,551
2021-10-19T01:56:12,42.805,6.029,CST-1368DR,5141,6877,14315,0.348,551
2021-10-19T01:59:14,42.805,6.029,CST-1368DR,5140,6877,14317,0.347,551
2021-10-19T02:02:15,42.805,6.029,CST-1368DR,5140,6877,14317,0.347,551
2021-10-19T02:05:17,42.805,6.029,CST-1368DR,5140,6877,14318,0.347,551
2021-10-19T02:08:19,42.805,6.029,CST-1368DR,5140,6877,14317,0.347,551
2021-10-19T02:11:20,42.805,6.029,CST-1368DR,5140,6877,14317,0.347,551
2021-10-19T02:14:22,42.805,6.029,CST-1368DR,5140,6877,14319,0.347,551
2021-10-19T02:17:23,42.805,6.029,CST-1368DR,5140,6876,14317,0.347,551
2021-10-19T02:20:25,42.805,6.029,CST-1368DR,5141,6876,14314,0.348,551
2021-10-19T02:23:27,42.805,6.029,CST-1368DR,5140,6876,14317,0.347,551
2021-10-19T02:26:28,42.805,6.029,CST-1368DR,5140,6877,14318,0.347,551
2021-10-19T02:29:30,42.805,6.029,CST-1368DR,5140,6876,14316,0.348,551
2021-10-19T02:32:31,42.805,6.029,CST-1368DR,5140,6876,14317,0.347,551
2021-10-19T02:35:33,42.805,6.029,CST-1368DR,5140,6876,14317,0.347,551
2021-10-19T02:38:34,42.805,6.029,CST-1368DR,5140,6876,14316,0.348,551
2021-10-19T02:41:36,42.805,6.029,CST-1368DR,5140,6875,14315,0.348,551
2021-10-19T02:44:38,42.805,6.029,CST-1368DR,5140,6874,14312,0.349,551
2021-10-19T02:47:39,42.805,6.029,CST-1368DR,5140,6877,14319,0.347,551
2021-10-19T02:50:41,42.805,6.029,CST-1368DR,5140,6876,14316,0.348,551
2021-10-19T02:53:42,42.805,6.029,CST-1368DR,5140,6878,14321,0.346,551
2021-10-19T02:56:44,42.805,6.029,CST-1368DR,5140,6876,14317,0.347,551
2021-10-19T02:59:46,42.805,6.029,CST-1368DR,5140,6877,14317,0.347,551
2021-10-19T03:02:47,42.805,6.029,CST-1368DR,5140,6876,14317,0.347,551
2021-10-19T03:05:49,42.805,6.029,CST-1368DR,5140,6877,14317,0.347,551
2021-10-19T03:08:50,42.805,6.029,CST-1368DR,5140,6877,14318,0.347,551
2021-10-19T03:11:52,42.805,6.029,CST-1368DR,5140,6877,14318,0.347,551
2021-10-19T03:14:53,42.805,6.029,CST-1368DR,5140,6877,14318,0.347,551
2021-10-19T03:17:55,42.805,6.029,CST-1368DR,5140,6877,14317,0.347,550
2021-10-19T03:20:57,42.805,6.029,CST-1368DR,5140,6877,14317,0.347,551
2021-10-19T03:23:58,42.805,6.029,CST-1368DR,5140,6877,14318,0.347,551
2021-10-19T03:27:00,42.805,6.029,CST-1368DR,5140,6876,14316,0.348,551
2021-10-19T03:30:01,42.805,6.029,CST-1368DR,5140,6877,14318,0.347,551
2021-10-19T03:33:03,42.805,6.029,CST-1368DR,5140,6877,14319,0.347,551
2021-10-19T03:36:04,42.805,6.029,CST-1368DR,5140,6876,14316,0.348,551
2021-10-19T03:39:06,42.805,6.029,CST-1368DR,5140,6877,14317,0.347,551
2021-10-19T03:42:08,42.805,6.029,CST-1368DR,5140,6876,14316,0.348,551
2021-10-19T03:45:09,42.805,6.029,CST-1368DR,5140,6876,14317,0.347,551
2021-10-19T03:48:11,42.805,6.029,CST-1368DR,5140,6875,14315,0.348,551
2021-10-19T03:51:12,42.805,6.029,CST-1368DR,5140,6877,14317,0.347,551
2021-10-19T03:54:14,42.805,6.029,CST-1368DR,5140,6877,14318,0.347,551
2021-10-19T03:57:16,42.805,6.029,CST-1368DR,5140,6874,14312,0.349,551
2021-10-19T04:00:17,42.805,6.029,CST-1368DR,5140,6876,14317,0.347,551
2021-10-19T04:03:19,42.805,6.029,CST-1368DR,5140,6877,14317,0.347,551
2021-10-19T04:06:20,42.805,6.029,CST-1368DR,5140,6877,14319,0.347,551
2021-10-19T04:09:22,42.805,6.029,CST-1368DR,5140,6877,14317,0.347,551
2021-10-19T04:12:23,42.805,6.029,CST-1368DR,5140,6878,14320,0.347,551
2021-10-19T04:15:25,42.805,6.029,CST-1368DR,5140,6877,14319,0.347,551
2021-10-19T04:18:27,42.805,6.029,CST-1368DR,5140,6877,14319,0.347,551
2021-10-19T04:21:28,42.805,6.029,CST-1368DR,5140,6877,14318,0.347,551
2021-10-19T04:24:30,42.805,6.029,CST-1368DR,5140,6876,14317,0.347,551
2021-10-19T04:27:31,42.805,6.029,CST-1368DR,5140,6877,14318,0.347,551
2021-10-19T04:30:33,42.805,6.029,CST-1368DR,5140,6877,14318,0.347,551
2021-10-19T04:33:34,42.805,6.029,CST-1368DR,5140,6877,14317,0.347,551
2021-10-19T04:36:36,42.805,6.029,CST-1368DR,5140,6877,14317,0.347,551
2021-10-19T04:39:38,42.805,6.029,CST-1368DR,5140,6877,14317,0.347,551
2021-10-19T04:42:39,42.805,6.029,CST-1368DR,5140,6877,14318,0.347,551
2021-10-19T04:45:41,42.805,6.029,CST-1368DR,5140,6876,14317,0.347,551
2021-10-19T04:48:42,42.805,6.029,CST-1368DR,5140,6876,14317,0.347,551
2021-10-19T04:51:44,42.805,6.029,CST-1368DR,5140,6876,14317,0.347,551
2021-10-19T04:54:46,42.805,6.029,CST-1368DR,5140,6876,14315,0.348,551
2021-10-19T04:57:47,42.805,6.029,CST-1368DR,5140,6876,14317,0.347,551
2021-10-19T05:00:49,42.805,6.029,CST-1368DR,5140,6877,14317,0.347,551
2021-10-19T05:03:50,42.805,6.029,CST-1368DR,5140,6876,14317,0.347,551
2021-10-19T05:06:52,42.805,6.029,CST-1368DR,5140,6876,14316,0.348,551
2021-10-19T05:09:53,42.805,6.029,CST-1368DR,5140,6877,14317,0.347,551
2021-10-19T05:12:55,42.805,6.029,CST-1368DR,5140,6875,14315,0.348,551
2021-10-19T05:15:57,42.805,6.029,CST-1368DR,5140,6876,14316,0.348,551
2021-10-19T05:18:58,42.805,6.029,CST-1368DR,5140,6875,14315,0.348,551
2021-10-19T05:22:00,42.805,6.029,CST-1368DR,5140,6875,14315,0.348,551
2021-10-19T05:25:01,42.805,6.029,CST-1368DR,5140,6875,14315,0.348,551
2021-10-19T05:28:03,42.805,6.029,CST-1368DR,5140,6876,14317,0.347,551
2021-10-19T05:31:05,42.805,6.029,CST-1368DR,5140,6876,14315,0.348,551
2021-10-19T05:34:06,42.805,6.029,CST-1368DR,5140,6874,14312,0.349,551
2021-10-19T05:37:08,42.805,6.029,CST-1368DR,5140,6875,14314,0.348,551
2021-10-19T05:40:09,42.805,6.029,CST-1368DR,5140,6876,14315,0.348,551
2021-10-19T05:43:11,42.805,6.029,CST-1368DR,5140,6875,14315,0.348,551
2021-10-19T05:46:12,42.805,6.029,CST-1368DR,5140,6875,14315,0.348,551
2021-10-19T05:49:14,42.805,6.029,CST-1368DR,5140,6876,14316,0.348,550
2021-10-19T05:52:16,42.805,6.029,CST-1368DR,5140,6875,14314,0.348,551
2021-10-19T05:55:17,42.805,6.029,CST-1368DR,5140,6874,14312,0.349,550
2021-10-19T05:58:19,42.805,6.029,CST-1368DR,5140,6875,14315,0.348,551
2021-10-19T06:01:20,42.805,6.029,CST-1368DR,5140,6876,14316,0.348,551
2021-10-19T06:04:22,42.805,6.029,CST-1368DR,5140,6875,14314,0.348,551
2021-10-19T06:07:23,42.805,6.029,CST-1368DR,5140,6876,14316,0.348,551
2021-10-19T06:10:25,42.805,6.029,CST-1368DR,5140,6875,14314,0.348,551
2021-10-19T06:13:27,42.805,6.029,CST-1368DR,5140,6876,14316,0.348,551
2021-10-19T06:16:28,42.805,6.029,CST-1368DR,5140,6875,14314,0.348,551
2021-10-19T06:19:30,42.805,6.029,CST-1368DR,5140,6875,14315,0.348,551
2021-10-19T06:22:31,42.805,6.029,CST-1368DR,5140,6876,14315,0.348,551
2021-10-19T06:25:33,42.805,6.029,CST-1368DR,5140,6876,14316,0.348,551
2021-10-19T06:28:35,42.805,6.029,CST-1368DR,5140,6875,14314,0.348,551
2021-10-19T06:31:36,42.805,6.029,CST-1368DR,5140,6876,14315,0.348,551
2021-10-19T06:34:38,42.805,6.029,CST-1368DR,5140,6875,14315,0.348,551
2021-10-19T06:37:39,42.805,6.029,CST-1368DR,5140,6875,14314,0.348,551
2021-10-19T06:40:41,42.805,6.029,CST-1368DR,5140,6876,14316,0.348,551
2021-10-19T06:43:42,42.805,6.029,CST-1368DR,5140,6876,14315,0.348,551
2021-10-19T06:46:44,42.805,6.029,CST-1368DR,5140,6875,14314,0.348,551
2021-10-19T06:49:46,42.805,6.029,CST-1368DR,5140,6875,14314,0.348,551
2021-10-19T06:52:47,42.805,6.029,CST-1368DR,5140,6875,14314,0.348,551
2021-10-19T06:55:49,42.805,6.029,CST-1368DR,5140,6875,14314,0.348,551
2021-10-19T06:58:50,42.805,6.029,CST-1368DR,5140,6876,14315,0.348,551
2021-10-19T07:01:52,42.805,6.029,CST-1368DR,5140,6876,14315,0.348,551
2021-10-19T07:04:54,42.805,6.029,CST-1368DR,5140,6875,14315,0.348,551
2021-10-19T07:07:55,42.805,6.029,CST-1368DR,5140,6875,14314,0.348,551
2021-10-19T07:10:57,42.805,6.029,CST-1368DR,5140,6875,14315,0.348,551
2021-10-19T07:13:58,42.805,6.029,CST-1368DR,5140,6876,14315,0.348,551
2021-10-19T07:17:00,42.805,6.029,CST-1368DR,5140,6875,14315,0.348,551
2021-10-19T07:20:01,42.805,6.029,CST-1368DR,5140,6875,14314,0.348,551
2021-10-19T07:23:03,42.805,6.029,CST-1368DR,5140,6876,14316,0.348,551
2021-10-19T07:26:05,42.805,6.029,CST-1368DR,5140,6875,14314,0.348,551
2021-10-19T07:29:06,42.805,6.029,CST-1368DR,5140,6875,14314,0.348,551
2021-10-19T07:32:08,42.805,6.029,CST-1368DR,5140,6875,14313,0.349,551
2021-10-19T07:35:09,42.805,6.029,CST-1368DR,5140,6875,14313,0.349,551
2021-10-19T07:38:11,42.805,6.029,CST-1368DR,5140,6875,14314,0.348,551
2021-10-19T07:41:12,42.805,6.029,CST-1368DR,5140,6875,14314,0.348,551
2021-10-19T07:44:14,42.805,6.029,CST-1368DR,5140,6875,14313,0.349,551
2021-10-19T07:47:16,42.805,6.029,CST-1368DR,5140,6875,14314,0.348,551
2021-10-19T07:50:17,42.805,6.029,CST-1368DR,5140,6875,14314,0.348,551
2021-10-19T07:53:19,42.805,6.029,CST-1368DR,5140,6874,14311,0.349,551
2021-10-19T07:56:20,42.805,6.029,CST-1368DR,5140,6875,14314,0.348,551
2021-10-19T07:59:22,42.805,6.029,CST-1368DR,5140,6873,14310,0.349,551
2021-10-19T08:02:24,42.805,6.029,CST-1368DR,5140,6873,14310,0.349,551
2021-10-19T08:05:25,42.805,6.029,CST-1368DR,5140,6874,14312,0.349,551
2021-10-19T08:08:27,42.805,6.029,CST-1368DR,5140,6873,14311,0.349,551
2021-10-19T08:11:28,42.805,6.029,CST-1368DR,5140,6875,14314,0.348,551
2021-10-19T08:14:30,42.805,6.029,CST-1368DR,5140,6875,14313,0.349,551
2021-10-19T08:17:31,42.805,6.029,CST-1368DR,5140,6874,14312,0.349,551
2021-10-19T08:20:33,42.805,6.029,CST-1368DR,5140,6872,14309,0.350,551
2021-10-19T08:23:35,42.805,6.029,CST-1368DR,5140,6873,14310,0.349,551
2021-10-19T08:26:36,42.805,6.029,CST-1368DR,5140,6874,14312,0.349,551
2021-10-19T08:29:38,42.805,6.029,CST-1368DR,5140,6874,14311,0.349,551
2021-10-19T08:32:39,42.805,6.029,CST-1368DR,5140,6875,14314,0.348,551
2021-10-19T08:35:41,42.805,6.029,CST-1368DR,5140,6875,14314,0.348,551
2021-10-19T08:38:42,42.805,6.029,CST-1368DR,5140,6874,14312,0.349,551
2021-10-19T08:41:44,42.805,6.029,CST-1368DR,5140,6875,14314,0.348,551
2021-10-19T08:44:46,42.805,6.029,CST-1368DR,5140,6874,14312,0.349,551
2021-10-19T08:47:47,42.805,6.029,CST-1368DR,5140,6875,14313,0.349,551
2021-10-19T08:50:49,42.805,6.029,CST-1368DR,5140,6874,14312,0.349,551
2021-10-19T08:53:50,42.805,6.029,CST-1368DR,5140,6875,14313,0.349,551
2021-10-19T08:56:52,42.805,6.029,CST-1368DR,5140,6875,14313,0.349,551
2021-10-19T08:59:54,42.805,6.029,CST-1368DR,5140,6876,14315,0.348,551
2021-10-19T09:02:55,42.805,6.029,CST-1368DR,5140,6875,14314,0.348,551
2021-10-19T09:05:57,42.805,6.029,CST-1368DR,5140,6874,14312,0.349,551
2021-10-19T09:08:58,42.805,6.029,CST-1368DR,5140,6874,14312,0.349,551
2021-10-19T09:12:00,42.805,6.029,CST-1368DR,5140,6874,14312,0.349,551
2021-10-19T09:15:01,42.805,6.029,CST-1368DR,5140,6873,14309,0.350,551
2021-10-19T09:18:03,42.805,6.029,CST-1368DR,5140,6874,14312,0.349,551
2021-10-19T09:21:05,42.805,6.029,CST-1368DR,5140,6874,14312,0.349,551
2021-10-19T09:24:06,42.805,6.029,CST-1368DR,5140,6874,14312,0.349,551
2021-10-19T09:27:08,42.805,6.029,CST-1368DR,5140,6874,14312,0.349,551
2021-10-19T09:30:09,42.805,6.029,CST-1368DR,5140,6874,14311,0.349,551
2021-10-19T09:33:11,42.805,6.029,CST-1368DR,5140,6874,14312,0.349,551
2021-10-19T09:36:13,42.805,6.029,CST-1368DR,5139,6872,14310,0.349,550
2021-10-19T09:39:14,42.805,6.029,CST-1368DR,5139,6872,14311,0.349,551
2021-10-19T09:42:16,42.805,6.029,CST-1368DR,5139,6871,14309,0.350,551
2021-10-19T09:45:17,42.805,6.029,CST-1368DR,5140,6874,14311,0.349,551
2021-10-19T09:48:19,42.805,6.029,CST-1368DR,5139,6873,14313,0.349,551
2021-10-19T09:51:20,42.805,6.029,CST-1368DR,5139,6873,14313,0.349,551
2021-10-19T09:54:22,42.805,6.029,CST-1368DR,5139,6874,14314,0.348,551
2021-10-19T09:57:24,42.805,6.029,CST-1368DR,5139,6873,14313,0.349,551
2021-10-19T10:00:25,42.805,6.029,CST-1368DR,5139,6875,14316,0.348,551
2021-10-19T10:03:27,42.805,6.029,CST-1368DR,5139,6864,14293,0.354,551
2021-10-19T10:06:28,42.805,6.029,CST-1368DR,5140,6874,14311,0.349,551
2021-10-19T10:09:30,42.805,6.029,CST-1368DR,5139,6874,14315,0.348,551
2021-10-19T10:12:31,42.805,6.029,CST-1368DR,5139,6874,14314,0.348,551
2021-10-19T10:15:33,42.805,6.029,CST-1368DR,5139,6874,14314,0.348,551
2021-10-19T10:18:35,42.805,6.029,CST-1368DR,5140,6874,14312,0.349,551
2021-10-19T10:21:36,42.805,6.029,CST-1368DR,5140,6873,14310,0.349,551
2021-10-19T10:24:38,42.805,6.029,CST-1368DR,5139,6873,14313,0.349,551
2021-10-19T10:27:39,42.805,6.029,CST-1368DR,5140,6873,14311,0.349,551
2021-10-19T10:30:41,42.805,6.029,CST-1368DR,5139,6873,14313,0.349,551
2021-10-19T10:33:43,42.805,6.029,CST-1368DR,5139,6874,14314,0.348,551
2021-10-19T10:36:44,42.805,6.029,CST-1368DR,5139,6873,14313,0.349,551
2021-10-19T10:39:46,42.805,6.029,CST-1368DR,5140,6874,14311,0.349,551
2021-10-19T10:42:47,42.805,6.029,CST-1368DR,5139,6875,14316,0.348,551
2021-10-19T10:50:06,42.805,6.029,CST-1368DR,5140,6874,14311,0.349,551
2021-10-19T10:53:08,42.805,6.029,CST-1368DR,5140,6873,14311,0.349,551
2021-10-19T10:56:10,42.805,6.029,CST-1368DR,5139,6873,14313,0.349,551
2021-10-19T10:59:11,42.805,6.029,CST-1368DR,5139,6873,14313,0.349,551
2021-10-19T11:02:13,42.805,6.029,CST-1368DR,5140,6873,14311,0.349,551
2021-10-19T11:05:14,42.805,6.029,CST-1368DR,5139,6873,14313,0.349,551
2021-10-19T11:08:16,42.805,6.029,CST-1368DR,5139,6874,14314,0.348,551
2021-10-19T11:11:17,42.805,6.029,CST-1368DR,5140,6873,14310,0.349,551
2021-10-19T11:14:19,42.805,6.029,CST-1368DR,5139,6874,14314,0.348,551
2021-10-19T11:17:21,42.805,6.029,CST-1368DR,5139,6874,14314,0.348,551
2021-10-19T11:20:22,42.805,6.029,CST-1368DR,5140,6874,14312,0.349,551
2021-10-19T11:23:24,42.805,6.029,CST-1368DR,5140,6874,14311,0.349,551
2021-10-19T11:26:25,42.805,6.029,CST-1368DR,5139,6874,14314,0.348,551
2021-10-19T11:29:27,42.805,6.029,CST-1368DR,5140,6874,14312,0.349,551
2021-10-19T11:32:29,42.805,6.029,CST-1368DR,5139,6873,14313,0.349,551
2021-10-19T11:35:30,42.805,6.029,CST-1368DR,5140,6874,14312,0.349,551
2021-10-19T11:38:32,42.805,6.029,CST-1368DR,5139,6873,14313,0.349,551
2021-10-19T11:41:33,42.805,6.029,CST-1368DR,5139,6873,14312,0.349,551
2021-10-19T11:44:35,42.805,6.029,CST-1368DR,5139,6874,14314,0.348,551
2021-10-19T11:47:36,42.805,6.029,CST-1368DR,5139,6873,14313,0.349,551
2021-10-19T11:50:38,42.805,6.029,CST-1368DR,5139,6874,14314,0.348,551
2021-10-19T11:53:40,42.805,6.029,CST-1368DR,5139,6874,14314,0.348,551
2021-10-19T11:56:41,42.805,6.029,CST-1368DR,5139,6873,14313,0.349,551
2021-10-19T11:59:43,42.805,6.029,CST-1368DR,5139,6873,14312,0.349,551
2021-10-19T12:02:44,42.805,6.029,CST-1368DR,5139,6874,14314,0.348,551
2021-10-19T12:05:46,42.805,6.029,CST-1368DR,5139,6873,14313,0.349,551
2021-10-19T12:08:47,42.805,6.029,CST-1368DR,5139,6873,14313,0.349,551
2021-10-19T12:11:49,42.805,6.029,CST-1368DR,5139,6871,14308,0.350,551
2021-10-19T12:14:51,42.805,6.029,CST-1368DR,5139,6874,14314,0.348,551
2021-10-19T12:17:52,42.805,6.029,CST-1368DR,5139,6869,14305,0.351,551
2021-10-19T12:20:54,42.805,6.029,CST-1368DR,5139,6873,14313,0.349,551
2021-10-19T12:23:55,42.805,6.029,CST-1368DR,5139,6873,14313,0.349,551
2021-10-19T12:26:57,42.805,6.029,CST-1368DR,5139,6873,14313,0.349,551
2021-10-19T12:29:59,42.805,6.029,CST-1368DR,5139,6872,14310,0.349,551
2021-10-19T12:33:00,42.805,6.029,CST-1368DR,5139,6873,14313,0.349,551
2021-10-19T12:36:02,42.805,6.029,CST-1368DR,5139,6873,14313,0.349,551
2021-10-19T12:39:03,42.805,6.029,CST-1368DR,5139,6873,14312,0.349,551
2021-10-19T12:42:05,42.805,6.029,CST-1368DR,5139,6873,14312,0.349,551
2021-10-19T12:45:06,42.805,6.029,CST-1368DR,5139,6873,14312,0.349,551
2021-10-19T12:48:08,42.805,6.029,CST-1368DR,5139,6872,14311,0.349,551
2021-10-19T12:51:10,42.805,6.029,CST-1368DR,5139,6873,14312,0.349,551
2021-10-19T12:54:11,42.805,6.029,CST-1368DR,5139,6873,14312,0.349,551
2021-10-19T12:57:13,42.805,6.029,CST-1368DR,5139,6872,14310,0.349,551
2021-10-19T13:00:14,42.805,6.029,CST-1368DR,5139,6872,14311,0.349,551
2021-10-19T13:03:16,42.805,6.029,CST-1368DR,5139,6873,14312,0.349,551
2021-10-19T13:06:18,42.805,6.029,CST-1368DR,5139,6872,14311,0.349,551
2021-10-19T13:09:19,42.805,6.029,CST-1368DR,5139,6873,14312,0.349,551
2021-10-19T13:12:21,42.805,6.029,CST-1368DR,5139,6873,14312,0.349,551
2021-10-19T13:15:22,42.805,6.029,CST-1368DR,5139,6870,14306,0.350,551
2021-10-19T13:18:24,42.805,6.029,CST-1368DR,5139,6872,14311,0.349,551
2021-10-19T13:21:25,42.805,6.029,CST-1368DR,5139,6872,14311,0.349,550
2021-10-19T13:24:27,42.805,6.029,CST-1368DR,5139,6873,14312,0.349,551
2021-10-19T13:27:29,42.805,6.029,CST-1368DR,5139,6872,14311,0.349,551
2021-10-19T13:30:30,42.805,6.029,CST-1368DR,5139,6872,14311,0.349,551
2021-10-19T13:33:32,42.805,6.029,CST-1368DR,5139,6873,14312,0.349,551
2021-10-19T13:36:33,42.805,6.029,CST-1368DR,5139,6872,14310,0.349,551
2021-10-19T13:39:35,42.805,6.029,CST-1368DR,5139,6872,14311,0.349,551
2021-10-19T13:42:36,42.805,6.029,CST-1368DR,5139,6873,14312,0.349,551
2021-10-19T13:45:38,42.805,6.029,CST-1368DR,5139,6873,14312,0.349,551
2021-10-19T13:48:40,42.805,6.029,CST-1368DR,5139,6872,14311,0.349,551
2021-10-19T13:51:41,42.805,6.029,CST-1368DR,5139,6873,14312,0.349,551
2021-10-19T13:54:43,42.805,6.029,CST-1368DR,5139,6873,14312,0.349,551
2021-10-19T13:57:44,42.805,6.029,CST-1368DR,5139,6872,14310,0.349,551
2021-10-19T14:00:46,42.805,6.029,CST-1368DR,5139,6871,14309,0.350,551
2021-10-19T14:03:48,42.805,6.029,CST-1368DR,5139,6872,14311,0.349,550
2021-10-19T14:06:49,42.805,6.029,CST-1368DR,5139,6873,14312,0.349,551
2021-10-19T14:09:51,42.805,6.029,CST-1368DR,5139,6872,14311,0.349,551
2021-10-19T14:12:52,42.805,6.029,CST-1368DR,5139,6872,14310,0.349,551
2021-10-19T14:15:54,42.805,6.029,CST-1368DR,5139,6872,14311,0.349,551
2021-10-19T14:18:55,42.805,6.029,CST-1368DR,5139,6872,14310,0.349,551
2021-10-19T14:21:57,42.805,6.029,CST-1368DR,5139,6872,14311,0.349,551
2021-10-19T14:24:59,42.805,6.029,CST-1368DR,5139,6873,14312,0.349,551
2021-10-19T14:28:00,42.805,6.029,CST-1368DR,5139,6872,14311,0.349,551
2021-10-19T14:31:02,42.805,6.029,CST-1368DR,5139,6871,14309,0.350,551
2021-10-19T14:34:03,42.805,6.029,CST-1368DR,5139,6872,14310,0.349,551
2021-10-19T14:37:05,42.805,6.029,CST-1368DR,5139,6872,14311,0.349,551
2021-10-19T14:40:07,42.805,6.029,CST-1368DR,5139,6872,14310,0.349,551
2021-10-19T14:43:08,42.805,6.029,CST-1368DR,5139,6871,14309,0.350,551
2021-10-19T14:46:10,42.805,6.029,CST-1368DR,5139,6873,14312,0.349,551
2021-10-19T14:49:11,42.805,6.029,CST-1368DR,5139,6873,14312,0.349,551
2021-10-19T14:52:13,42.805,6.029,CST-1368DR,5139,6872,14310,0.349,551
2021-10-19T14:55:14,42.805,6.029,CST-1368DR,5139,6872,14310,0.349,551
2021-10-19T14:58:16,42.805,6.029,CST-1368DR,5139,6872,14311,0.349,551
2021-10-19T15:01:18,42.805,6.029,CST-1368DR,5139,6872,14311,0.349,551
2021-10-19T15:04:19,42.805,6.029,CST-1368DR,5139,6872,14311,0.349,551
2021-10-19T15:07:21,42.805,6.029,CST-1368DR,5139,6872,14310,0.349,551
2021-10-19T15:10:22,42.805,6.029,CST-1368DR,5139,6872,14311,0.349,551
2021-10-19T15:13:24,42.805,6.029,CST-1368DR,5139,6872,14311,0.349,551
2021-10-19T15:16:25,42.805,6.029,CST-1368DR,5139,6873,14312,0.349,551
2021-10-19T15:19:27,42.805,6.029,CST-1368DR,5139,6872,14310,0.349,551
2021-10-19T15:22:29,42.805,6.029,CST-1368DR,5139,6872,14311,0.349,551
2021-10-19T15:25:30,42.805,6.029,CST-1368DR,5139,6872,14311,0.349,551
2021-10-19T15:28:32,42.805,6.029,CST-1368DR,5139,6872,14311,0.349,551
2021-10-19T15:31:33,42.805,6.029,CST-1368DR,5139,6873,14312,0.349,551
2021-10-19T15:34:35,42.805,6.029,CST-1368DR,5139,6872,14310,0.349,551
2021-10-19T15:37:37,42.805,6.029,CST-1368DR,5139,6872,14310,0.349,551
2021-10-19T15:40:38,42.805,6.029,CST-1368DR,5139,6872,14310,0.349,551
2021-10-19T15:43:40,42.805,6.029,CST-1368DR,5139,6872,14311,0.349,551
2021-10-19T15:46:41,42.805,6.029,CST-1368DR,5139,6872,14310,0.349,551
2021-10-19T15:49:43,42.805,6.029,CST-1368DR,5139,6873,14312,0.349,551
2021-10-19T15:52:44,42.805,6.029,CST-1368DR,5139,6870,14307,0.350,551
2021-10-19T15:55:46,42.805,6.029,CST-1368DR,5139,6872,14310,0.349,551
2021-10-19T15:58:48,42.805,6.029,CST-1368DR,5139,6872,14311,0.349,551
2021-10-19T16:01:49,42.805,6.029,CST-1368DR,5139,6872,14310,0.349,551
2021-10-19T16:04:51,42.805,6.029,CST-1368DR,5139,6873,14312,0.349,551
2021-10-19T16:07:52,42.805,6.029,CST-1368DR,5139,6872,14310,0.349,551
2021-10-19T16:10:54,42.805,6.029,CST-1368DR,5139,6872,14311,0.349,551
2021-10-19T16:13:56,42.805,6.029,CST-1368DR,5139,6872,14310,0.349,551
2021-10-19T16:16:57,42.805,6.029,CST-1368DR,5139,6872,14311,0.349,551
2021-10-19T16:19:59,42.805,6.029,CST-1368DR,5139,6871,14308,0.350,551
2021-10-19T16:23:00,42.805,6.029,CST-1368DR,5139,6872,14311,0.349,551
2021-10-19T16:26:02,42.805,6.029,CST-1368DR,5139,6872,14311,0.349,551
2021-10-19T16:29:03,42.805,6.029,CST-1368DR,5139,6871,14309,0.350,551
2021-10-19T16:32:05,42.805,6.029,CST-1368DR,5139,6872,14311,0.349,551
2021-10-19T16:35:07,42.805,6.029,CST-1368DR,5139,6872,14311,0.349,551
2021-10-19T16:38:08,42.805,6.029,CST-1368DR,5139,6872,14311,0.349,551
2021-10-19T16:41:10,42.805,6.029,CST-1368DR,5139,6872,14311,0.349,551
2021-10-19T16:44:11,42.805,6.029,CST-1368DR,5139,6871,14308,0.350,551
2021-10-19T16:47:13,42.805,6.029,CST-1368DR,5139,6872,14311,0.349,551
2021-10-19T16:50:14,42.805,6.029,CST-1368DR,5139,6872,14310,0.349,551
2021-10-19T16:53:16,42.805,6.029,CST-1368DR,5139,6871,14309,0.350,551
2021-10-19T16:56:18,42.805,6.029,CST-1368DR,5139,6871,14309,0.350,551